loading
|

STARLINK-11172, 60193

Orbit data source: Space-Track

STARLINK-11172, 60193 is a payload satellite owned by SpaceX/Seattle (US) in LEO that was launched on Wed, 03 Jul 2024 UTC via an FALCON 9 launch vehicle from the Air Force Eastern Test Range (AFETR). Payloads include a variety of satellites, spacecraft, and rockets equipped with specific instruments for various scientific and technological missions. These include communications satellites like Starlink; space stations such as the ISS; scientific satellites like the Hubble; Earth observation satellites from companies like Planet Labs, Umbra, and HawkEye 360; GPS; miniature CubeSats for education and research; and military/defense satellites.

Loading next visibility...
Loading greatness...
STARLINK-11172 details
Identifier
60193, 2024-124L
Orbit
LEO
Last TLE update13 hours ago
Origin
Flag of USSpaceX/Seattle (US)
ManufacturerSpaceX/Seattle
Mission statusOperational
MissionUnknown
Bus & MotorSTARLINK V2M, Unknown motor
Mass750 kg wet, ~700 kg dry
Launch date (UTC)
2024-07-03 (3 months ago)
Launch vehicle
FALCON 9
Launch site
Air Force Eastern Test Range (AFETR)
Object type
Payload
Rocket body
Debris
Radar Cross SectionLarge (>1 m²)

Expand to show TLE details & history

TLE from 13 hours ago
0 STARLINK-11172
1 60193U 24124L   24261.37032925  .00167564  00000-0  13583-2 0  9999
2 60193  53.1560 295.0633 0001012 113.8474 246.2650 15.69743458 11987
Epoch: 2024-09-17T08:53Z
Definitive object data (Epoch: 2024-09-17T08:53:16.447Z)
Latitude-0.00001°
Longitude164.9588°
Altitude360.82 km
Speed7.694 km/s
True Right ascension19h 40m 15s
True Declination0° 00' 00"
Sunlit
Object was in full shadow at TLE epoch
Predictive object data (real-time)
Latitude-47.50019°
Longitude107.78729°
Altitude375.998 km
Speed7.683 km/s
Apparent Right ascension22h 54m 40s
Apparent Declination-84° 13' 24"
Sunlit
Object is in daylight
Predictive observer data (real-time)
Local Sidereal Time15:10:13
Azimuth172.987° S
Elevation-42.251°
Doppler factor1
Orbital elements
Apogee360.574 km
Perigee359.21 km
Semi-major axis6,738.029 km
Eccentricity0.0001012
Inclination53.156°
RAAN295.0633°
Arg. of periapsis113.8474°
True anomaly246.25438°
Mean anomaly246.265°
Eccentric anomaly246.25969°
Mean motion3.92413 °/min
BSTAR0.0013583
Period91.74 mins
No data available

STARLINK-11172 Visibility forecast

Observer location: 39.9160978°, -105.1181434

STARLINK-11172 is not visible in the next 10 days
Span
Click to sort rows by Start time (UTC) header in descending order
Start Az.
Max El. time (UTC)
Max El. Az.
Max El.
End time (UTC)
End Az.